Location: Holiday Acres Laynes 2 Mobile Home Park
(26.7249°N, 81.8671°W)
Time: 05:57:50
(UTC+00:00)

Helios 1A Rocket - Pass Details

Date: 25 November 2020
Orbit: 564 x 585 km, 98.3° (Epoch: 21 January)

Event Time Altitude Azimuth Distance (km) Brightness Sun altitude
Rises 23:26:30 0° 136° (SE) 2,754 6.1 -11.8°
Reaches altitude 10° 23:29:05 10° 118° (ESE) 1,858 5.1 -12.3°
Enters shadow 23:31:13 19° 88° (E) 1,392 4.3 -12.8°
Exits shadow 23:35:48 - 17° (NNE) 2,148 5.5 -13.7°
Sets 23:37:29 0° 8° (N) 2,757 6.1 -14.1°
